SES-21

Last updated on Mon Oct 27 2025 00:02:50 GMT+0000 (Coordinated Universal Time)

1 53961U 22123B 25299.47658882 .00000081 00000+0 00000+0 0 9996 2 53961 0.0309 67.6003 0001266 138.4780 229.6301 1.00273228 4862
UTC large
Height (km)
Speed (km/s)
/
Latitude / Longitude
Inclination (degrees)
Orbital Period (minutes)
Azimuth
Elevation
Range (km)
Doppler Factor

Next 0 passes for location: London (51.5072 / 0.1276)

Sorry there are no passes over London.